time, Switch, Flow(0), Analog(2)
yyyy/mm/dd HH:MM:SS.fff, True=FILTERED|False=TOTAL, L/min, V
2023/07/04 09:00:02.465, True, 4.716, 0.133288
2023/07/04 09:00:02.969, True, 4.642, 0.129168
2023/07/04 09:00:03.473, True, 4.642, 0.127871
2023/07/04 09:00:03.968, True, 4.046, 0.129778
2023/07/04 09:00:04.473, True, 2.651, 0.130922
2023/07/04 09:00:04.977, True, 1.658, 0.130694
2023/07/04 09:00:05.473, True, 1.011, 0.132372
2023/07/04 09:00:05.977, True, 1.327, 0.130846
2023/07/04 09:00:06.481, True, 0.995, 0.131228
2023/07/04 09:00:06.977, True, 1.348, 0.131304
2023/07/04 09:00:07.481, True, 0.995, 0.130617
2023/07/04 09:00:07.985, True, 1.326, 0.130617
2023/07/04 09:00:08.488, True, 0.995, 0.130312
2023/07/04 09:00:08.984, True, 1.012, 0.127642
2023/07/04 09:00:09.489, True, 1.325, 0.131609
2023/07/04 09:00:09.993, True, 0.995, 0.129931
2023/07/04 09:00:10.489, True, 1.012, 0.129549
2023/07/04 09:00:10.992, True, 1.325, 0.131380
2023/07/04 09:00:11.497, True, 0.995, 0.130388
2023/07/04 09:00:11.993, True, 1.348, 0.132372
2023/07/04 09:00:12.497, True, 0.995, 0.129473
2023/07/04 09:00:12.000, True, 0.995, 0.128557
2023/07/04 09:00:13.497, True, 1.348, 0.130922
2023/07/04 09:00:14.001, True, 0.995, 0.130465
2023/07/04 09:00:14.497, True, 1.011, 0.130541
2023/07/04 09:00:15.001, True, 1.326, 0.131456
2023/07/04 09:00:15.505, True, 0.995, 0.130694
2023/07/04 09:00:16.001, True, 1.010, 0.130541
2023/07/04 09:00:16.505, True, 0.995, 0.130465
2023/07/04 09:00:17.009, True, 1.326, 0.129625
2023/07/04 09:00:17.504, True, 1.011, 0.130770
2023/07/04 09:00:18.009, True, 0.995, 0.128252
2023/07/04 09:00:18.513, True, 1.326, 0.129168
2023/07/04 09:00:19.009, True, 1.011, 0.130617
2023/07/04 09:00:19.512, True, 0.995, 0.130312
2023/07/04 09:00:20.017, True, 1.327, 0.131609
2023/07/04 09:00:20.513, True, 1.011, 0.130770
2023/07/04 09:00:21.016, True, 0.995, 0.132677
2023/07/04 09:00:21.520, True, 0.996, 0.131380
2023/07/04 09:00:22.024, True, 0.993, 0.129854
2023/07/04 09:00:22.520, True, 1.011, 0.130999
2023/07/04 09:00:23.024, True, 0.994, 0.130694
2023/07/04 09:00:23.529, True, 0.995, 0.129702
2023/07/04 09:00:24.025, True, 1.348, 0.130465
2023/07/04 09:00:24.529, True, 0.995, 0.131533
2023/07/04 09:00:25.032, True, 0.995, 0.129397
2023/07/04 09:00:25.529, True, 1.348, 0.131228
2023/07/04 09:00:26.033, True, 0.995, 0.130236
2023/07/04 09:00:26.536, True, 0.994, 0.130083
2023/07/04 09:00:27.033, True, 1.011, 0.130236
2023/07/04 09:00:27.537, True, 1.327, 0.130159
2023/07/04 09:00:28.041, True, 0.995, 0.130007
2023/07/04 09:00:28.537, True, 1.350, 0.130541
2023/07/04 09:00:29.041, True, 0.995, 0.130846
2023/07/04 09:00:29.544, True, 0.994, 0.129931
2023/07/04 09:00:30.041, True, 1.010, 0.130846
2023/07/04 09:00:30.545, True, 1.327, 0.127947
2023/07/04 09:00:31.049, True, 0.995, 0.129702
2023/07/04 09:00:31.544, True, 1.010, 0.129015
2023/07/04 09:00:32.049, True, 0.996, 0.130694
2023/07/04 09:00:32.552, True, 1.326, 0.128862
2023/07/04 09:00:33.049, True, 1.012, 0.129702
2023/07/04 09:00:33.553, True, 0.993, 0.129854
2023/07/04 09:00:34.057, True, 0.995, 0.131914
2023/07/04 09:00:34.553, True, 1.351, 0.130388
2023/07/04 09:00:35.057, True, 0.993, 0.131228
2023/07/04 09:00:35.561, True, 0.995, 0.129320
2023/07/04 09:00:36.056, True, 1.011, 0.131456
2023/07/04 09:00:36.561, True, 1.327, 0.128634
2023/07/04 09:00:37.057, True, 1.010, 0.130846
2023/07/04 09:00:37.561, True, 0.995, 0.129854
2023/07/04 09:00:38.065, True, 0.995, 0.130694
2023/07/04 09:00:38.561, True, 1.348, 0.131151
2023/07/04 09:00:39.065, True, 0.995, 0.130312
2023/07/04 09:00:39.569, True, 0.995, 0.133211
2023/07/04 09:00:40.072, True, 0.995, 0.129473
2023/07/04 09:00:40.569, True, 1.348, 0.130007
2023/07/04 09:00:41.073, True, 0.995, 0.132753
2023/07/04 09:00:41.577, True, 0.995, 0.128557
2023/07/04 09:00:42.073, True, 1.012, 0.129473
2023/07/04 09:00:42.577, True, 1.325, 0.130770
2023/07/04 09:00:43.081, True, 0.995, 0.128862
2023/07/04 09:00:43.576, True, 1.011, 0.130007
2023/07/04 09:00:44.081, True, 0.995, 0.129625
2023/07/04 09:00:44.584, True, 1.326, 0.126345
2023/07/04 09:00:45.080, True, 1.011, 0.128099
2023/07/04 09:00:45.585, True, 0.995, 0.130007
2023/07/04 09:00:46.081, True, 1.011, 0.130694
2023/07/04 09:00:46.585, True, 0.995, 0.131228
2023/07/04 09:00:47.089, True, 1.327, 0.131380
2023/07/04 09:00:47.585, True, 1.011, 0.131533
2023/07/04 09:00:48.089, True, 1.326, 0.131762
2023/07/04 09:00:48.592, True, 0.995, 0.130007
2023/07/04 09:00:49.089, True, 1.011, 0.130465
2023/07/04 09:00:49.593, True, 0.996, 0.131304
2023/07/04 09:00:50.096, True, 0.994, 0.127184
2023/07/04 09:00:50.593, True, 1.348, 0.131151
2023/07/04 09:00:51.097, True, 0.995, 0.131685
2023/07/04 09:00:51.593, True, 1.011, 0.129931
2023/07/04 09:00:52.096, True, 1.326, 0.131609
2023/07/04 09:00:52.601, True, 0.995, 0.131151
2023/07/04 09:00:53.097, True, 1.349, 0.130770
2023/07/04 09:00:53.601, True, 0.994, 0.129015
2023/07/04 09:00:54.104, True, 0.995, 0.130999
2023/07/04 09:00:54.601, True, 1.011, 0.130388
2023/07/04 09:00:55.105, True, 0.995, 0.128023
2023/07/04 09:00:55.608, True, 1.329, 0.129397
2023/07/04 09:00:56.105, True, 1.009, 0.129625
2023/07/04 09:00:56.609, True, 1.328, 0.132677
2023/07/04 09:00:57.113, True, 0.993, 0.131304
2023/07/04 09:00:57.609, True, 1.011, 0.131533
2023/07/04 09:00:58.112, True, 0.995, 0.131533
2023/07/04 09:00:58.617, True, 0.995, 0.131762
2023/07/04 09:00:59.113, True, 1.011, 0.134127
2023/07/04 09:00:59.617, True, 0.995, 0.132372
2023/07/04 09:01:00.121, True, 1.327, 0.133974
2023/07/04 09:01:00.617, True, 1.011, 0.131762
2023/07/04 09:01:01.121, True, 0.995, 0.133059
2023/07/04 09:01:01.625, True, 1.327, 0.133745
2023/07/04 09:01:02.121, True, 1.011, 0.131685
2023/07/04 09:01:02.625, True, 0.995, 0.132677
2023/07/04 09:01:03.129, True, 1.326, 0.134585
2023/07/04 09:01:03.624, True, 1.011, 0.131533
2023/07/04 09:01:04.129, True, 1.326, 0.134356
2023/07/04 09:01:04.633, True, 0.995, 0.132372
2023/07/04 09:01:05.129, True, 1.011, 0.134966
2023/07/04 09:01:05.632, True, 0.995, 0.132448
2023/07/04 09:01:06.137, True, 1.327, 0.133135
2023/07/04 09:01:06.633, True, 1.011, 0.133364
2023/07/04 09:01:07.137, True, 0.995, 0.133974
2023/07/04 09:01:07.633, True, 1.350, 0.133516
2023/07/04 09:01:08.137, True, 0.994, 0.133135
2023/07/04 09:01:08.640, True, 1.326, 0.133440
2023/07/04 09:01:09.136, True, 1.011, 0.133974
2023/07/04 09:01:09.641, True, 0.996, 0.134127
2023/07/04 09:01:10.145, True, 0.994, 0.134890
2023/07/04 09:01:10.641, True, 1.348, 0.135119
2023/07/04 09:01:11.144, True, 0.995, 0.135042
2023/07/04 09:01:11.648, True, 0.995, 0.134356
2023/07/04 09:01:12.153, True, 0.995, 0.133059
2023/07/04 09:01:12.649, True, 1.348, 0.134203
2023/07/04 09:01:13.152, True, 0.995, 0.137865
2023/07/04 09:01:13.657, True, 0.995, 0.135195
2023/07/04 09:01:14.153, True, 1.011, 0.135500
2023/07/04 09:01:14.656, True, 1.327, 0.134966
2023/07/04 09:01:15.160, True, 0.995, 0.132601
2023/07/04 09:01:15.657, True, 1.011, 0.134585
2023/07/04 09:01:16.160, True, 1.326, 0.136416
2023/07/04 09:01:16.665, True, 0.995, 0.133059
2023/07/04 09:01:17.160, True, 1.350, 0.134051
2023/07/04 09:01:17.664, True, 0.993, 0.135424
2023/07/04 09:01:18.169, True, 1.329, 0.134585
2023/07/04 09:01:18.665, True, 1.009, 0.135195
2023/07/04 09:01:19.168, True, 0.995, 0.134585
2023/07/04 09:01:19.673, True, 0.995, 0.135500
2023/07/04 09:01:20.169, True, 1.348, 0.135958
2023/07/04 09:01:20.673, True, 0.995, 0.135805
2023/07/04 09:01:21.177, True, 0.995, 0.134890
2023/07/04 09:01:21.673, True, 1.347, 0.136645
2023/07/04 09:01:22.177, True, 0.995, 0.136187
2023/07/04 09:01:22.673, True, 1.011, 0.134661
2023/07/04 09:01:23.177, True, 0.995, 0.134661
2023/07/04 09:01:23.680, True, 1.328, 0.134737
2023/07/04 09:01:24.177, True, 1.009, 0.139315
2023/07/04 09:01:24.681, True, 0.995, 0.136339
2023/07/04 09:01:25.185, True, 1.326, 0.134890
2023/07/04 09:01:25.681, True, 1.011, 0.135195
2023/07/04 09:01:26.185, True, 0.995, 0.135576
2023/07/04 09:01:26.689, True, 0.995, 0.137102
2023/07/04 09:01:27.185, True, 1.348, 0.136110
2023/07/04 09:01:27.689, True, 0.995, 0.136416
2023/07/04 09:01:28.193, True, 0.995, 0.136645
2023/07/04 09:01:28.697, True, 0.995, 0.136645
2023/07/04 09:01:29.193, True, 1.348, 0.135882
2023/07/04 09:01:29.697, True, 0.995, 0.136797
2023/07/04 09:01:30.201, True, 0.995, 0.133516
2023/07/04 09:01:30.697, True, 1.348, 0.135271
2023/07/04 09:01:31.201, True, 0.995, 0.136263
2023/07/04 09:01:31.704, True, 0.995, 0.137636
2023/07/04 09:01:32.201, True, 1.350, 0.135882
2023/07/04 09:01:32.705, True, 0.993, 0.135805
2023/07/04 09:01:33.209, True, 0.995, 0.134966
2023/07/04 09:01:33.704, True, 1.011, 0.138170
2023/07/04 09:01:34.209, True, 1.327, 0.138247
2023/07/04 09:01:34.713, True, 0.995, 0.136568
2023/07/04 09:01:35.209, True, 1.011, 0.136492
2023/07/04 09:01:35.712, True, 1.326, 0.138247
2023/07/04 09:01:36.217, True, 0.995, 0.135958
2023/07/04 09:01:36.713, True, 1.011, 0.137560
2023/07/04 09:01:37.217, True, 1.326, 0.135195
2023/07/04 09:01:37.721, True, 0.995, 0.135882
2023/07/04 09:01:38.216, True, 1.011, 0.135195
2023/07/04 09:01:38.721, True, 0.995, 0.137331
2023/07/04 09:01:39.225, True, 1.326, 0.137560
2023/07/04 09:01:39.721, True, 1.011, 0.136721
2023/07/04 09:01:40.225, True, 0.995, 0.137484
2023/07/04 09:01:40.729, True, 1.326, 0.135271
2023/07/04 09:01:41.225, True, 1.011, 0.137484
2023/07/04 09:01:41.729, True, 0.995, 0.135348
2023/07/04 09:01:42.233, True, 0.995, 0.136797
2023/07/04 09:01:42.729, True, 1.011, 0.136187
2023/07/04 09:01:43.233, True, 0.995, 0.136568
2023/07/04 09:01:43.737, True, 1.326, 0.136721
2023/07/04 09:01:44.240, True, 0.995, 0.136110
2023/07/04 09:01:44.736, True, 1.011, 0.136339
2023/07/04 09:01:45.241, True, 1.326, 0.137331
2023/07/04 09:01:45.745, True, 0.995, 0.135882
2023/07/04 09:01:46.240, True, 1.011, 0.137026
2023/07/04 09:01:46.745, True, 1.326, 0.137255
2023/07/04 09:01:47.249, True, 0.995, 0.136034
2023/07/04 09:01:47.744, True, 1.011, 0.135958
2023/07/04 09:01:48.249, True, 1.326, 0.137636
2023/07/04 09:01:48.752, True, 0.995, 0.136645
2023/07/04 09:01:49.249, True, 1.011, 0.136950
2023/07/04 09:01:49.753, True, 1.326, 0.135500
2023/07/04 09:01:50.257, True, 0.995, 0.136873
2023/07/04 09:01:50.752, True, 1.011, 0.136568
2023/07/04 09:01:51.257, True, 1.326, 0.136263
2023/07/04 09:01:51.760, True, 0.995, 0.134432
2023/07/04 09:01:52.256, True, 1.011, 0.136034
2023/07/04 09:01:52.761, True, 0.995, 0.136721
2023/07/04 09:01:53.264, True, 1.326, 0.138705
2023/07/04 09:01:53.768, True, 0.995, 0.134051
2023/07/04 09:01:54.264, True, 1.011, 0.136263
2023/07/04 09:01:54.768, True, 1.326, 0.136950
2023/07/04 09:01:55.264, True, 1.011, 0.136187
2023/07/04 09:01:55.768, True, 0.995, 0.138552
2023/07/04 09:01:56.272, True, 0.995, 0.138247
2023/07/04 09:01:56.769, True, 1.347, 0.137331
2023/07/04 09:01:57.272, True, 0.995, 0.133745
2023/07/04 09:01:57.776, True, 0.995, 0.136492
2023/07/04 09:01:58.273, True, 1.011, 0.138018
2023/07/04 09:01:58.777, True, 1.327, 0.137179
2023/07/04 09:01:59.280, True, 0.994, 0.137713
2023/07/04 09:01:59.777, True, 1.012, 0.136797
2023/07/04 09:02:00.280, True, 1.326, 0.137789
2023/07/04 09:02:00.785, True, 0.995, 0.134356
2023/07/04 09:02:01.280, True, 1.010, 0.134585
2023/07/04 09:02:01.785, True, 0.996, 0.134279
2023/07/04 09:02:02.288, True, 1.326, 0.136568
2023/07/04 09:02:02.785, True, 1.010, 0.137560
2023/07/04 09:02:03.289, True, 0.996, 0.135042
2023/07/04 09:02:03.793, True, 1.326, 0.136416
2023/07/04 09:02:04.288, True, 1.011, 0.137331
2023/07/04 09:02:04.793, True, 0.994, 0.138018
2023/07/04 09:02:05.296, True, 1.328, 0.137102
2023/07/04 09:02:05.793, True, 1.011, 0.137713
2023/07/04 09:02:06.297, True, 1.326, 0.134432
2023/07/04 09:02:06.801, True, 0.993, 0.136034
2023/07/04 09:02:07.297, True, 1.013, 0.136263
2023/07/04 09:02:07.800, True, 0.995, 0.137102
2023/07/04 09:02:08.305, True, 1.324, 0.136110
2023/07/04 09:02:08.801, True, 1.011, 0.136187
2023/07/04 09:02:09.305, True, 0.996, 0.136034
2023/07/04 09:02:09.809, True, 0.993, 0.138247
2023/07/04 09:02:10.305, True, 1.349, 0.135958
2023/07/04 09:02:10.809, True, 0.994, 0.135958
2023/07/04 09:02:11.313, True, 0.996, 0.137026
2023/07/04 09:02:11.808, True, 1.346, 0.135653
2023/07/04 09:02:12.313, True, 0.995, 0.134585
2023/07/04 09:02:12.817, True, 0.995, 0.137331
2023/07/04 09:02:13.321, True, 1.327, 0.135042
2023/07/04 09:02:13.817, True, 1.011, 0.134203
2023/07/04 09:02:14.321, True, 0.995, 0.135805
2023/07/04 09:02:14.825, True, 1.327, 0.138476
2023/07/04 09:02:15.320, True, 1.011, 0.135042
2023/07/04 09:02:15.825, True, 0.996, 0.135500
2023/07/04 09:02:16.329, True, 1.324, 0.136263
2023/07/04 09:02:16.825, True, 1.011, 0.134508
2023/07/04 09:02:17.329, True, 0.995, 0.136034
2023/07/04 09:02:17.833, True, 1.326, 0.137255
2023/07/04 09:02:18.329, True, 1.011, 0.134585
2023/07/04 09:02:18.833, True, 0.995, 0.134890
2023/07/04 09:02:19.337, True, 0.995, 0.137713
2023/07/04 09:02:19.833, True, 1.011, 0.138170
2023/07/04 09:02:20.337, True, 1.327, 0.136034
2023/07/04 09:02:20.841, True, 0.994, 0.135119
2023/07/04 09:02:21.337, True, 1.011, 0.136645
2023/07/04 09:02:21.841, True, 1.326, 0.135271
2023/07/04 09:02:22.344, True, 0.995, 0.134737
2023/07/04 09:02:22.841, True, 1.011, 0.136263
2023/07/04 09:02:23.345, True, 1.328, 0.136645
2023/07/04 09:02:23.841, True, 1.010, 0.135653
2023/07/04 09:02:24.345, True, 0.995, 0.136873
2023/07/04 09:02:24.849, True, 1.326, 0.136339
2023/07/04 09:02:25.345, True, 1.011, 0.135576
2023/07/04 09:02:25.849, True, 0.995, 0.133822
2023/07/04 09:02:26.353, True, 1.326, 0.136721
2023/07/04 09:02:26.849, True, 1.011, 0.135653
2023/07/04 09:02:27.353, True, 0.995, 0.136339
2023/07/04 09:02:27.857, True, 0.995, 0.136263
2023/07/04 09:02:28.353, True, 1.348, 0.135882
2023/07/04 09:02:28.857, True, 0.994, 0.135653
2023/07/04 09:02:29.361, True, 0.995, 0.137331
2023/07/04 09:02:29.856, True, 1.011, 0.135500
2023/07/04 09:02:30.360, True, 1.326, 0.135653
2023/07/04 09:02:30.865, True, 0.663, 0.137331
2023/07/04 09:02:31.360, True, 1.348, 0.139849
2023/07/04 09:02:31.865, True, 0.995, 0.135729
2023/07/04 09:02:32.369, True, 0.995, 0.135271
2023/07/04 09:02:32.865, True, 1.011, 0.135729
2023/07/04 09:02:33.369, True, 1.327, 0.135729
2023/07/04 09:02:33.873, True, 0.995, 0.134279
2023/07/04 09:02:34.377, True, 0.995, 0.137865
2023/07/04 09:02:34.873, True, 1.011, 0.137484
2023/07/04 09:02:35.377, True, 0.995, 0.136110
2023/07/04 09:02:35.881, True, 1.326, 0.138476
2023/07/04 09:02:36.377, True, 1.011, 0.138476
2023/07/04 09:02:36.881, True, 0.995, 0.136873
2023/07/04 09:02:37.377, True, 1.011, 0.136568
2023/07/04 09:02:37.880, True, 0.995, 0.134356
2023/07/04 09:02:38.385, True, 1.326, 0.138094
2023/07/04 09:02:38.881, True, 1.011, 0.135271
2023/07/04 09:02:39.384, True, 0.995, 0.136721
2023/07/04 09:02:39.889, True, 1.328, 0.137331
2023/07/04 09:02:40.385, True, 1.010, 0.134890
2023/07/04 09:02:40.889, True, 0.995, 0.134127
2023/07/04 09:02:41.385, True, 1.011, 0.135119
2023/07/04 09:02:41.888, True, 1.326, 0.136034
2023/07/04 09:02:42.393, True, 0.995, 0.134585
2023/07/04 09:02:42.889, True, 1.011, 0.134813
2023/07/04 09:02:43.393, True, 0.995, 0.134661
2023/07/04 09:02:43.897, True, 1.326, 0.137789
2023/07/04 09:02:44.393, True, 1.011, 0.135500
2023/07/04 09:02:44.896, True, 0.995, 0.135195
2023/07/04 09:02:45.401, True, 1.327, 0.135119
2023/07/04 09:02:45.897, True, 1.011, 0.137484
2023/07/04 09:02:46.401, True, 0.995, 0.136873
2023/07/04 09:02:46.905, True, 1.326, 0.134585
2023/07/04 09:02:47.401, True, 1.011, 0.135042
2023/07/04 09:02:47.905, True, 0.995, 0.134966
2023/07/04 09:02:48.409, True, 0.995, 0.137026
2023/07/04 09:02:48.905, True, 1.348, 0.134508
2023/07/04 09:02:49.409, True, 0.995, 0.134661
2023/07/04 09:02:49.913, True, 0.995, 0.135653
2023/07/04 09:02:50.409, True, 1.348, 0.134432
2023/07/04 09:02:50.913, True, 0.995, 0.133364
2023/07/04 09:02:51.409, True, 1.011, 0.139086
2023/07/04 09:02:51.913, True, 0.995, 0.135195
2023/07/04 09:02:52.417, True, 1.326, 0.134432
2023/07/04 09:02:52.913, True, 1.011, 0.136645
2023/07/04 09:02:53.417, True, 0.995, 0.134813
2023/07/04 09:02:53.921, True, 1.327, 0.134508
2023/07/04 09:02:54.417, True, 1.011, 0.136416
2023/07/04 09:02:54.920, True, 0.996, 0.135805
2023/07/04 09:02:55.425, True, 1.324, 0.137560
2023/07/04 09:02:55.921, True, 1.011, 0.134890
2023/07/04 09:02:56.425, True, 0.995, 0.136034
2023/07/04 09:02:56.921, True, 1.348, 0.136492
2023/07/04 09:02:57.425, True, 0.995, 0.138094
2023/07/04 09:02:57.929, True, 0.995, 0.136416
2023/07/04 09:02:58.425, True, 1.348, 0.136416
2023/07/04 09:02:58.929, True, 0.995, 0.136416
2023/07/04 09:02:59.433, True, 0.995, 0.134661
2023/07/04 09:02:59.929, True, 1.012, 0.137255
2023/07/04 09:03:00.433, True, 0.993, 0.133745
2023/07/04 09:03:00.937, True, 1.326, 0.137636
2023/07/04 09:03:01.433, True, 1.012, 0.135729
2023/07/04 09:03:01.937, True, 0.993, 0.136721
2023/07/04 09:03:02.441, True, 0.995, 0.135653
2023/07/04 09:03:02.937, True, 1.011, 0.134890
2023/07/04 09:03:03.441, True, 1.326, 0.135576
2023/07/04 09:03:03.945, True, 0.995, 0.135195
2023/07/04 09:03:04.441, True, 1.011, 0.135119
2023/07/04 09:03:04.945, True, 0.995, 0.139315
2023/07/04 09:03:05.449, True, 1.327, 0.135805
2023/07/04 09:03:05.945, True, 1.011, 0.136797
2023/07/04 09:03:06.449, True, 0.995, 0.137484
2023/07/04 09:03:06.953, True, 0.995, 0.135729
2023/07/04 09:03:07.449, True, 1.349, 0.136416
2023/07/04 09:03:07.953, True, 0.994, 0.135500
2023/07/04 09:03:08.457, True, 0.995, 0.135119
2023/07/04 09:03:08.953, True, 1.348, 0.136568
2023/07/04 09:03:09.457, True, 0.995, 0.135958
2023/07/04 09:03:09.961, True, 0.995, 0.136034
2023/07/04 09:03:10.464, True, 1.327, 0.134585
2023/07/04 09:03:10.961, True, 1.011, 0.134813
2023/07/04 09:03:11.465, True, 1.327, 0.135729
2023/07/04 09:03:11.961, True, 1.010, 0.133669
2023/07/04 09:03:12.465, True, 0.995, 0.134508
2023/07/04 09:03:12.969, True, 1.326, 0.135195
2023/07/04 09:03:13.465, True, 1.011, 0.134813
2023/07/04 09:03:13.969, True, 0.995, 0.134813
2023/07/04 09:03:14.473, True, 0.995, 0.134508
2023/07/04 09:03:14.977, True, 1.326, 0.134508
2023/07/04 09:03:15.473, True, 1.012, 0.137713
2023/07/04 09:03:15.977, True, 1.325, 0.135042
2023/07/04 09:03:16.481, True, 0.995, 0.134356
2023/07/04 09:03:16.977, True, 1.011, 0.134432
2023/07/04 09:03:17.481, True, 1.326, 0.135729
2023/07/04 09:03:17.985, True, 0.995, 0.139620
2023/07/04 09:03:18.480, True, 1.011, 0.136950
2023/07/04 09:03:18.985, True, 1.327, 0.136797
2023/07/04 09:03:19.489, True, 0.995, 0.136568
2023/07/04 09:03:19.985, True, 1.011, 0.135271
2023/07/04 09:03:20.489, True, 0.995, 0.134127
2023/07/04 09:03:20.993, True, 1.327, 0.134661
2023/07/04 09:03:21.489, True, 1.011, 0.135042
2023/07/04 09:03:21.993, True, 0.994, 0.135805
2023/07/04 09:03:22.489, True, 1.011, 0.134051
2023/07/04 09:03:22.993, True, 1.327, 0.135576
2023/07/04 09:03:23.496, True, 0.994, 0.134661
2023/07/04 09:03:24.001, True, 0.995, 0.135805
2023/07/04 09:03:24.497, True, 1.348, 0.137865
2023/07/04 09:03:25.000, True, 0.994, 0.133440
2023/07/04 09:03:25.504, True, 0.996, 0.133669
2023/07/04 09:03:26.001, True, 1.347, 0.134279
2023/07/04 09:03:26.504, True, 0.994, 0.135271
2023/07/04 09:03:27.008, True, 1.328, 0.137560
2023/07/04 09:03:27.504, True, 1.011, 0.134051
2023/07/04 09:03:28.009, True, 0.994, 0.135348
2023/07/04 09:03:28.512, True, 0.996, 0.136416
2023/07/04 09:03:29.008, True, 1.011, 0.133135
2023/07/04 09:03:29.513, True, 1.325, 0.136797
2023/07/04 09:03:30.017, True, 0.996, 0.135119
2023/07/04 09:03:30.512, True, 1.010, 0.135348
2023/07/04 09:03:31.016, True, 1.325, 0.134356
2023/07/04 09:03:31.521, True, 0.996, 0.135576
2023/07/04 09:03:32.025, True, 0.995, 0.136339
2023/07/04 09:03:32.521, True, 1.346, 0.135653
2023/07/04 09:03:33.025, True, 0.996, 0.136416
2023/07/04 09:03:33.529, True, 0.994, 0.135424
2023/07/04 09:03:34.024, True, 1.012, 0.138399
2023/07/04 09:03:34.529, True, 1.325, 0.136568
2023/07/04 09:03:35.032, True, 0.996, 0.134279
2023/07/04 09:03:35.529, True, 1.011, 0.134432
2023/07/04 09:03:36.033, True, 0.993, 0.134051
2023/07/04 09:03:36.537, True, 1.329, 0.136645
2023/07/04 09:03:37.033, True, 1.011, 0.133593
2023/07/04 09:03:37.537, True, 0.993, 0.134966
2023/07/04 09:03:38.041, True, 1.328, 0.135271
2023/07/04 09:03:38.545, True, 0.996, 0.133593
2023/07/04 09:03:39.041, True, 1.011, 0.133135
2023/07/04 09:03:39.545, True, 1.323, 0.135805
2023/07/04 09:03:40.049, True, 0.995, 0.135424
2023/07/04 09:03:40.545, True, 1.010, 0.134051
2023/07/04 09:03:41.049, True, 1.326, 0.133745
2023/07/04 09:03:41.545, True, 1.011, 0.133440
2023/07/04 09:03:42.049, True, 0.995, 0.133669
2023/07/04 09:03:42.552, True, 1.326, 0.135500
2023/07/04 09:03:43.057, True, 0.995, 0.133516
2023/07/04 09:03:43.553, True, 1.011, 0.135119
2023/07/04 09:03:44.056, True, 1.326, 0.132830
2023/07/04 09:03:44.561, True, 0.996, 0.135424
2023/07/04 09:03:45.057, True, 1.010, 0.136339
2023/07/04 09:03:45.561, True, 1.326, 0.134203
2023/07/04 09:03:46.065, True, 0.995, 0.134966
2023/07/04 09:03:46.561, True, 1.011, 0.134432
2023/07/04 09:03:47.065, True, 0.995, 0.136110
2023/07/04 09:03:47.568, True, 1.327, 0.134813
2023/07/04 09:03:48.064, True, 1.011, 0.133974
2023/07/04 09:03:48.569, True, 0.995, 0.134966
2023/07/04 09:03:49.072, True, 0.995, 0.133516
2023/07/04 09:03:49.569, True, 1.011, 0.133669
2023/07/04 09:03:50.073, True, 1.326, 0.136263
2023/07/04 09:03:50.569, True, 1.011, 0.134890
2023/07/04 09:03:51.073, True, 0.995, 0.134813
2023/07/04 09:03:51.577, True, 1.326, 0.136034
2023/07/04 09:03:52.080, True, 0.995, 0.134661
2023/07/04 09:03:52.577, True, 1.011, 0.136110
2023/07/04 09:03:53.081, True, 0.995, 0.135653
2023/07/04 09:03:53.585, True, 1.326, 0.133669
2023/07/04 09:03:54.081, True, 1.011, 0.133669
2023/07/04 09:03:54.585, True, 0.995, 0.134127
2023/07/04 09:03:55.089, True, 1.326, 0.133669
2023/07/04 09:03:55.585, True, 1.011, 0.134737
2023/07/04 09:03:56.089, True, 0.995, 0.133593
2023/07/04 09:03:56.593, True, 1.326, 0.132448
2023/07/04 09:03:57.089, True, 1.011, 0.136110
2023/07/04 09:03:57.593, True, 0.995, 0.133898
2023/07/04 09:03:58.097, True, 0.995, 0.133669
2023/07/04 09:03:58.593, True, 1.348, 0.134051
2023/07/04 09:03:59.097, True, 0.995, 0.134051
2023/07/04 09:03:59.601, True, 0.995, 0.134127
2023/07/04 09:04:00.097, True, 1.011, 0.135576
2023/07/04 09:04:00.601, True, 1.326, 0.134356
2023/07/04 09:04:01.105, True, 0.996, 0.134432
2023/07/04 09:04:01.601, True, 1.010, 0.133516
2023/07/04 09:04:02.105, True, 1.326, 0.136339
2023/07/04 09:04:02.609, True, 0.995, 0.135653
2023/07/04 09:04:03.105, True, 1.348, 0.132906
2023/07/04 09:04:03.609, True, 0.995, 0.134737
2023/07/04 09:04:04.113, True, 0.995, 0.135729
2023/07/04 09:04:04.609, True, 1.348, 0.135653
2023/07/04 09:04:05.113, True, 0.995, 0.133669
2023/07/04 09:04:05.617, True, 0.995, 0.132372
2023/07/04 09:04:06.113, True, 1.011, 0.134127
2023/07/04 09:04:06.617, True, 0.995, 0.132906
2023/07/04 09:04:07.121, True, 0.995, 0.135576
2023/07/04 09:04:07.624, True, 1.326, 0.134356
2023/07/04 09:04:08.120, True, 1.011, 0.133669
2023/07/04 09:04:08.625, True, 0.995, 0.135042
2023/07/04 09:04:09.129, True, 0.995, 0.136110
2023/07/04 09:04:09.625, True, 1.011, 0.133516
2023/07/04 09:04:10.129, True, 0.995, 0.135882
2023/07/04 09:04:10.633, True, 0.994, 0.134585
2023/07/04 09:04:11.129, True, 1.348, 0.134432
2023/07/04 09:04:11.632, True, 0.995, 0.134508